| time (UTC) | temp F | wind direction | speed MPH | gust MPH | rain 1hr in | rain 24hr in | rain mn in | humidity % | barometer mb |
| 20260509223056 | 72 | 0 | 0.0 | 2.0 | 0.00 | 0.42 | 0.28 | 97 | 1012.4 |
| 20260509221553 | 72 | 0 | 0.0 | 5.0 | 0.00 | 0.42 | 0.28 | 97 | 1012.1 |
| 20260509220059 | 72 | 0 | 0.0 | 2.0 | 0.00 | 0.42 | 0.28 | 97 | 1012.3 |
| 20260509214557 | 72 | 0 | 1.0 | 3.0 | 0.02 | 0.42 | 0.28 | 96 | 1012.2 |
| 20260509213055 | 73 | 19 | 0.0 | 2.0 | 0.04 | 0.42 | 0.28 | 96 | 1012.1 |
| 20260509211558 | 73 | 0 | 1.0 | 7.0 | 0.06 | 0.42 | 0.28 | 96 | 1012.1 |
| 20260509210054 | 75 | 0 | 0.0 | 1.0 | 0.06 | 0.42 | 0.28 | 96 | 1011.8 |
| 20260509204553 | 75 | 0 | 0.0 | 2.0 | 0.04 | 0.40 | 0.26 | 96 | 1011.8 |
| 20260509203054 | 75 | 279 | 0.0 | 3.0 | 0.06 | 0.38 | 0.24 | 96 | 1011.8 |
| 20260509201552 | 75 | 0 | 0.0 | 1.0 | 0.12 | 0.36 | 0.22 | 95 | 1011.7 |
| 20260509200056 | 75 | 0 | 0.0 | 2.0 | 0.16 | 0.36 | 0.22 | 94 | 1011.6 |
| 20260509194553 | 76 | 280 | 0.0 | 1.0 | 0.16 | 0.36 | 0.22 | 93 | 1011.7 |
| 20260509193055 | 76 | 0 | 0.0 | 2.0 | 0.12 | 0.32 | 0.18 | 91 | 1011.8 |
| 20260509191553 | 77 | 0 | 0.0 | 1.0 | 0.03 | 0.23 | 0.09 | 89 | 1011.8 |
| 20260509190054 | 78 | 0 | 0.0 | 3.0 | 0.00 | 0.20 | 0.06 | 84 | 1011.6 |
| 20260509184549 | 79 | 78 | 1.0 | 4.0 | 0.00 | 0.20 | 0.06 | 82 | 1011.5 |
| 20260509183052 | 80 | 250 | 0.0 | 6.0 | 0.00 | 0.20 | 0.06 | 82 | 1011.8 |
| 20260509181552 | 80 | 0 | 0.0 | 4.0 | 0.00 | 0.20 | 0.06 | 83 | 1011.7 |
| 20260509180054 | 79 | 85 | 1.0 | 4.0 | 0.00 | 0.20 | 0.06 | 83 | 1011.9 |
| 20260509174555 | 79 | 0 | 0.0 | 3.0 | 0.00 | 0.20 | 0.06 | 83 | 1012.2 |
| 20260509173116 | 79 | 59 | 1.0 | 2.0 | 0.00 | 0.20 | 0.06 | 83 | 1012.2 |
| 20260509171553 | 79 | 276 | 1.0 | 3.0 | 0.00 | 0.20 | 0.06 | 85 | 1012.3 |
| 20260509164559 | 78 | 222 | 0.0 | 3.0 | 0.00 | 0.20 | 0.06 | 85 | 1012.3 |
| 20260509163059 | 78 | 11 | 1.0 | 3.0 | 0.00 | 0.20 | 0.06 | 84 | 1012.3 |
| 20260509161554 | 78 | 0 | 1.0 | 4.0 | 0.00 | 0.20 | 0.06 | 85 | 1012.8 |
| 20260509160051 | 77 | 271 | 0.0 | 2.0 | 0.00 | 0.20 | 0.06 | 86 | 1012.7 |
| 20260509154551 | 76 | 0 | 0.0 | 2.0 | 0.00 | 0.20 | 0.06 | 87 | 1012.6 |
| 20260509153054 | 77 | 348 | 1.0 | 3.0 | 0.00 | 0.20 | 0.06 | 85 | 1012.7 |
| 20260509151616 | 77 | 0 | 0.0 | 3.0 | 0.00 | 0.20 | 0.06 | 86 | 1013.0 |
| 20260509150054 | 76 | 0 | 0.0 | 3.0 | 0.00 | 0.20 | 0.06 | 88 | 1012.9 |
| 20260509144552 | 75 | 288 | 0.0 | 2.0 | 0.00 | 0.20 | 0.06 | 89 | 1013.0 |
| 20260509143103 | 74 | 0 | 0.0 | 3.0 | 0.00 | 0.20 | 0.06 | 91 | 1013.1 |
| 20260509141555 | 74 | 0 | 0.0 | 2.0 | 0.00 | 0.20 | 0.06 | 92 | 1012.6 |
| 20260509140052 | 73 | 280 | 2.0 | 4.0 | 0.00 | 0.20 | 0.06 | 94 | 1012.9 |
| 20260509134555 | 72 | 299 | 1.0 | 5.0 | 0.00 | 0.20 | 0.06 | 95 | 1012.9 |
| 20260509133054 | 72 | 266 | 1.0 | 3.0 | 0.00 | 0.20 | 0.06 | 96 | 1012.7 |
| 20260509131559 | 72 | 0 | 0.0 | 2.0 | 0.00 | 0.20 | 0.06 | 97 | 1012.4 |
| 20260509130126 | 71 | 0 | 1.0 | 3.0 | 0.00 | 0.20 | 0.06 | 97 | 1012.5 |
| 20260509124555 | 71 | 240 | 1.0 | 3.0 | 0.00 | 0.20 | 0.06 | 98 | 1012.2 |
| 20260509123120 | 70 | 0 | 1.0 | 3.0 | 0.00 | 0.20 | 0.06 | 98 | 1012.4 |
| 20260509121555 | 70 | 281 | 1.0 | 3.0 | 0.00 | 0.20 | 0.06 | 98 | 1012.2 |
| 20260509120053 | 70 | 311 | 1.0 | 3.0 | 0.00 | 0.20 | 0.06 | 98 | 1012.1 |
| 20260509114624 | 69 | 283 | 0.0 | 3.0 | 0.01 | 0.20 | 0.06 | 98 | 1011.9 |
| 20260509113112 | 69 | 0 | 2.0 | 5.0 | 0.01 | 0.20 | 0.06 | 98 | 1011.4 |
| 20260509111556 | 69 | 188 | 1.0 | 5.0 | 0.01 | 0.20 | 0.06 | 98 | 1011.2 |
| 20260509104548 | 68 | 0 | 0.0 | 3.0 | 0.00 | 0.19 | 0.05 | 98 | 1010.2 |
| 20260509103107 | 67 | 164 | 0.0 | 2.0 | 0.00 | 0.19 | 0.05 | 98 | 1010.5 |
| 20260509101602 | 67 | 0 | 0.0 | 2.0 | 0.00 | 0.19 | 0.05 | 98 | 1010.4 |
| 20260509100054 | 66 | 0 | 0.0 | 1.0 | 0.00 | 0.19 | 0.05 | 98 | 1010.3 |
| 20260509094601 | 66 | 0 | 0.0 | 0.0 | 0.00 | 0.19 | 0.05 | 98 | 1011.2 |
| 20260509093055 | 66 | 0 | 0.0 | 0.0 | 0.00 | 0.19 | 0.05 | 98 | 1010.8 |
| 20260509091557 | 66 | 0 | 0.0 | 0.0 | 0.00 | 0.19 | 0.05 | 98 | 1011.2 |
| 20260509084602 | 67 | 0 | 0.0 | 0.0 | 0.00 | 0.19 | 0.05 | 98 | 1011.1 |
| 20260509083052 | 67 | 0 | 0.0 | 0.0 | 0.00 | 0.19 | 0.05 | 98 | 1011.3 |
| 20260509081559 | 67 | 0 | 0.0 | 0.0 | 0.00 | 0.19 | 0.05 | 98 | 1011.2 |
| 20260509080059 | 67 | 0 | 0.0 | 0.0 | 0.00 | 0.19 | 0.05 | 98 | 1011.6 |
| 20260509074552 | 67 | 0 | 0.0 | 0.0 | 0.00 | 0.19 | 0.05 | 98 | 1011.6 |
| 20260509073054 | 67 | 0 | 0.0 | 2.0 | 0.00 | 0.19 | 0.05 | 98 | 1011.6 |
| 20260509071551 | 67 | 0 | 0.0 | 2.0 | 0.00 | 0.19 | 0.05 | 98 | 1012.0 |
| 20260509070053 | 67 | 0 | 0.0 | 1.0 | 0.00 | 0.19 | 0.05 | 97 | 1012.1 |
| 20260509064558 | 67 | 73 | 0.0 | 2.0 | 0.00 | 0.19 | 0.05 | 97 | 1012.4 |
| 20260509063050 | 67 | 0 | 0.0 | 2.0 | 0.00 | 0.19 | 0.05 | 97 | 1012.8 |
| 20260509061604 | 67 | 0 | 1.0 | 2.0 | 0.00 | 0.19 | 0.05 | 97 | 1012.7 |
| 20260509060051 | 67 | 0 | 0.0 | 1.0 | 0.00 | 0.19 | 0.05 | 97 | 1013.1 |
| 20260509054610 | 67 | 0 | 0.0 | 1.0 | 0.01 | 0.19 | 0.05 | 97 | 1013.0 |
| 20260509053055 | 67 | 0 | 0.0 | 2.0 | 0.01 | 0.19 | 0.05 | 97 | 1013.2 |
| 20260509051604 | 66 | 0 | 0.0 | 1.0 | 0.02 | 0.19 | 0.05 | 96 | 1013.8 |
| 20260509050053 | 66 | 0 | 0.0 | 2.0 | 0.05 | 0.19 | 0.05 | 96 | 1014.4 |
| 20260509044557 | 66 | 0 | 0.0 | 3.0 | 0.13 | 0.18 | 0.04 | 96 | 1014.6 |
| 20260509043051 | 66 | 79 | 1.0 | 3.0 | 0.18 | 0.18 | 0.04 | 95 | 1014.7 |
| 20260509041552 | 66 | 0 | 0.0 | 3.0 | 0.17 | 0.17 | 0.03 | 94 | 1014.9 |
| 20260509040054 | 66 | 0 | 0.0 | 3.0 | 0.14 | 0.14 | 0.00 | 93 | 1015.2 |
| 20260509034555 | 67 | 0 | 3.0 | 9.0 | 0.05 | 0.05 | 0.05 | 92 | 1015.3 |
| 20260509033054 | 70 | 331 | 2.0 | 7.0 | 0.00 | 0.00 | 0.00 | 93 | 1015.4 |
| 20260509031607 | 70 | 352 | 1.0 | 3.0 | 0.00 | 0.00 | 0.00 | 93 | 1015.0 |
| 20260509030059 | 71 | 61 | 0.0 | 5.0 | 0.00 | 0.00 | 0.00 | 92 | 1014.6 |
| 20260509024556 | 72 | 268 | 1.0 | 7.0 | 0.00 | 0.00 | 0.00 | 92 | 1015.0 |
| 20260509023111 | 72 | 144 | 0.0 | 3.0 | 0.00 | 0.00 | 0.00 | 93 | 1014.6 |
| 20260509021552 | 72 | 46 | 1.0 | 3.0 | 0.00 | 0.00 | 0.00 | 93 | 1014.4 |
| 20260509020053 | 72 | 41 | 0.0 | 3.0 | 0.00 | 0.00 | 0.00 | 92 | 1014.2 |
| 20260509014552 | 72 | 104 | 0.0 | 2.0 | 0.00 | 0.00 | 0.00 | 92 | 1014.1 |
| 20260509013052 | 72 | 0 | 0.0 | 1.0 | 0.00 | 0.00 | 0.00 | 92 | 1013.7 |
| 20260509011555 | 72 | 0 | 0.0 | 2.0 | 0.00 | 0.00 | 0.00 | 92 | 1013.6 |
| 20260509010054 | 72 | 0 | 0.0 | 2.0 | 0.00 | 0.00 | 0.00 | 92 | 1013.5 |
| 20260509004601 | 72 | 0 | 0.0 | 3.0 | 0.00 | 0.00 | 0.00 | 91 | 1013.3 |
| 20260509003057 | 72 | 38 | 0.0 | 1.0 | 0.00 | 0.00 | 0.00 | 91 | 1013.4 |
| 20260509001552 | 72 | 102 | 0.0 | 3.0 | 0.00 | 0.00 | 0.00 | 91 | 1013.1 |
| 20260509000054 | 72 | 24 | 1.0 | 5.0 | 0.00 | 0.00 | 0.00 | 90 | 1012.8 |
| 20260508234556 | 72 | 0 | 1.0 | 7.0 | 0.00 | 0.00 | 0.00 | 89 | 1012.8 |
| 20260508233058 | 73 | 195 | 2.0 | 6.0 | 0.00 | 0.00 | 0.00 | 89 | 1012.8 |
| 20260508231600 | 73 | 97 | 0.0 | 6.0 | 0.00 | 0.00 | 0.00 | 88 | 1012.7 |
| 20260508230125 | 73 | 69 | 2.0 | 7.0 | 0.00 | 0.00 | 0.00 | 87 | 1012.6 |
| 20260508224604 | 73 | 115 | 1.0 | 6.0 | 0.00 | 0.00 | 0.00 | 87 | 1012.7 |